Location: Drocourt
(49.0571°N, 1.7669°E)
Time: 14:12:39
(UTC+00:00)

Vanguard 2 Rocket - Pass Details

Date: 15 April 2024
Orbit: 556 x 3304 km, 32.9° (Epoch: 22 May)

Event Time Altitude Azimuth Distance (km) Brightness Sun altitude
Exits shadow 04:04:20 - 270° (W) 6,787 10.8 -9.5°
Reaches altitude 10° 04:08:56 10° 262° (W) 5,824 10.4 -8.8°
Maximum altitude 04:21:21 26° 216° (SW) 3,750 9.6 -6.9°
Drops below altitude 10° 04:30:09 10° 165° (SSE) 4,023 10.1 -5.6°
Sets 04:33:30 0° 152° (SSE) 4,625 10.6 -5.1°
